Location: Newark
(5.8900°S, 42.6378°W)
Time: 22:26:17
(UTC+00:00)

deb Explorer IX - Pass Details

Date: 31 October 2019
Orbit: 546 x 1105 km, 38.8° (Epoch: 14 November)

Event Time Altitude Azimuth Distance (km) Brightness Sun altitude
Exits shadow 07:05:56 12° 224° (SW) 2,085 ? -19.7°
Maximum altitude 07:10:41 73° 140° (SE) 696 ? -18.6°
Drops below altitude 10° 07:15:09 10° 55° (NE) 1,947 ? -17.5°
Sets 07:17:19 0° 53° (NE) 2,793 ? -17.0°
